This demonstration page uses our WeatherBlox Daily Observations layout. Learn more.

Hourly Observations for December 3, 2019

Temp ( °F °C ) Dew Point ( °F °C ) Humidity (%) Winds ( mph kmh ) Pressure ( in mb ) Visibility ( mi km ) Precip ( " mm )
12:15 am 00:15 Clear 32 0.1 28 -2.1 85 85 WNW 8 13 30.03 1017 10 16.0934 0 0
12:35 am 00:35 Clear 32 -0.1 28 -2.5 84 84 WNW 5 7 30.03 1017 10 16.0934 0 0
12:55 am 00:55 Clear 30 -1.1 27 -2.7 89 89 NW 5 7 30.05 1017 10 16.0934 0 0
1:15 am 01:15 Clear 31 -0.8 28 -2.5 88 88 WNW 5 7 30.03 1017 10 16.0934 0 0
1:35 am 01:35 Clear 29 -1.5 26 -3.1 89 89 W 6 9 30.02 1017 10 16.0934 0 0
1:55 am 01:55 Clear 30 -1 27 -2.8 88 88 W 7 11 30.02 1017 10 16.0934 0 0
2:15 am 02:15 Clear 30 -1 26 -3.1 86 86 W 8 13 30.03 1017 10 16.0934 0 0
2:35 am 02:35 Clear 30 -1.2 26 -3.2 86 86 W 6 9 30.03 1017 10 16.0934 0 0
2:55 am 02:55 Clear 30 -1 26 -3.1 86 86 W 9 15 30.03 1017 10 16.0934 0 0
3:15 am 03:15 Clear 31 -0.8 26 -3.1 85 85 W 8 13 30.03 1017 10 16.0934 0 0
3:35 am 03:35 Clear 31 -0.6 26 -3.1 83 83 WNW 7 11 30.02 1017 10 16.0934 0 0
3:55 am 03:55 Clear 30 -1.1 26 -3.2 86 86 WNW 6 9 30.03 1017 10 16.0934 0 0
4:15 am 04:15 Clear 30 -0.9 26 -3.2 85 85 W 8 13 30.02 1017 10 16.0934 0 0
4:35 am 04:35 Clear 31 -0.8 26 -3.6 82 82 W 6 9 30.03 1017 10 16.0934 0 0
4:55 am 04:55 Clear 30 -1.3 25 -3.8 83 83 W 7 11 30.03 1017 10 16.0934 0 0
5:15 am 05:15 Clear 32 -0.2 26 -3.2 80 80 W 9 15 30.02 1016 10 16.0934 0 0
5:35 am 05:35 Clear 32 0.1 26 -3.1 79 79 W 8 13 30 1016 10 16.0934 0 0
5:55 am 05:55 Clear 33 0.5 26 -3.1 77 77 WNW 6 9 30.01 1016 10 16.0934 0 0
6:15 am 06:15 Clear 32 0 26 -3.4 78 78 W 6 9 30.01 1016 10 16.0934 0 0
6:35 am 06:35 Clear 31 -0.5 26 -3.2 82 82 WNW 7 11 30.02 1017 10 16.0934 0 0
6:55 am 06:55 Clear 30 -1.2 26 -3.6 84 84 WNW 8 13 30.03 1017 10 16.0934 0 0
7:15 am 07:15 Clear 30 -1.2 26 -3.3 86 86 WNW 6 9 30.02 1016 10 16.0934 0 0
7:35 am 07:35 Clear 29 -1.7 26 -3.3 89 89 WNW 7 11 30.03 1017 10 16.0934 0 0
7:55 am 07:55 Sunny 31 -0.4 27 -2.6 85 85 WNW 7 11 30.02 1017 10 16.0934 0 0
8:15 am 08:15 Sunny 30 -0.9 27 -3 86 86 NW 7 11 30.02 1017 10 16.0934 0 0
8:35 am 08:35 Sunny 31 -0.3 28 -2.3 87 87 WNW 8 13 30.02 1017 10 16.0934 0 0
8:55 am 08:55 Sunny 32 0 28 -2 87 87 NW 7 11 30.02 1017 10 16.0934 0 0
9:15 am 09:15 Sunny 33 0.8 30 -1.1 87 87 NW 9 15 30.02 1016 10 16.0934 0 0
9:35 am 09:35 Sunny 36 2 31 -0.5 84 84 NW 10 17 30.02 1016 10 16.0934 0 0
9:55 am 09:55 Sunny 37 2.5 31 -0.3 82 82 NW 10 17 30.02 1017 10 16.0934 0 0
10:15 am 10:15 Sunny 37 2.8 32 -0.1 81 81 WNW 12 19 30.03 1017 10 16.0934 0 0
10:35 am 10:35 Sunny 38 3.4 32 0 79 79 WNW 9 15 30.02 1017 10 16.0934 0 0
10:55 am 10:55 Sunny 39 4 32 0 75 75 WNW 9 15 30.03 1017 10 16.0934 0 0
11:15 am 11:15 Sunny 40 4.5 32 0.2 74 74 WNW 8 13 30.02 1017 10 16.0934 0 0
11:35 am 11:35 Sunny 40 4.6 33 0.3 74 74 WNW 10 17 30.01 1016 10 16.0934 0 0
11:55 am 11:55 Sunny 41 5.2 33 0.6 72 72 WNW 7 11 30.01 1016 10 16.0934 0 0
12:15 pm 12:15 Sunny 42 5.5 33 0.7 72 72 NW 8 13 30 1016 10 16.0934 0 0
12:35 pm 12:35 Sunny 43 6 34 0.9 70 70 WNW 9 15 29.99 1016 10 16.0934 0 0
12:55 pm 12:55 Sunny 43 6.3 34 1 69 69 W 9 15 29.99 1015 10 16.0934 0 0
1:15 pm 13:15 Sunny 44 6.7 34 1.3 69 69 WNW 9 15 29.99 1016 10 16.0934 0 0
1:35 pm 13:35 Sunny 44 6.8 35 1.4 69 69 W 9 15 29.98 1015 10 16.0934 0 0
1:55 pm 13:55 Sunny 45 7.3 35 1.6 67 67 WNW 7 11 29.99 1015 10 16.0934 0 0
2:15 pm 14:15 Sunny 46 7.6 35 1.6 66 66 W 7 11 29.98 1015 10 16.0934 0 0
2:35 pm 14:35 Sunny 46 7.8 35 1.6 65 65 W 8 13 29.97 1015 10 16.0934 0 0
2:55 pm 14:55 Sunny 47 8.4 35 1.7 63 63 W 6 9 29.97 1015 10 16.0934 0 0
3:15 pm 15:15 Sunny 48 8.7 35 1.6 61 61 W 6 9 29.95 1014 10 16.0934 0 0
3:35 pm 15:35 Sunny 48 9 35 1.5 60 60 W 6 9 29.96 1015 10 16.0934 0 0
3:55 pm 15:55 Sunny 48 8.7 34 1.3 60 60 W 8 13 29.96 1015 10 16.0934 0 0
4:15 pm 16:15 Sunny 47 8.2 35 1.5 63 63 W 7 11 29.98 1015 10 16.0934 0 0
4:35 pm 16:35 Sunny 44 6.9 35 1.5 69 69 WNW 6 9 30 1016 10 16.0934 0 0
4:55 pm 16:55 Sunny 42 5.6 34 1.1 73 73 W 8 13 30.01 1016 10 16.0934 0 0
5:15 pm 17:15 Clear 41 4.8 33 0.5 74 74 W 8 13 30.03 1017 10 16.0934 0 0
5:35 pm 17:35 Clear 41 4.8 33 0.5 74 74 W 9 15 30.03 1017 10 16.0934 0 0
5:55 pm 17:55 Clear 40 4.6 33 0.3 74 74 W 8 13 30.04 1017 10 16.0934 0 0
6:15 pm 18:15 Clear 40 4.3 32 0 74 74 W 9 15 30.04 1017 10 16.0934 0 0
6:35 pm 18:35 Clear 40 4.2 32 0 74 74 W 12 19 30.05 1017 10 16.0934 0 0
6:55 pm 18:55 Clear 39 4 32 -0.1 75 75 W 8 13 30.05 1018 10 16.0934 0 0
7:15 pm 19:15 Clear 38 3.6 31 -0.4 75 75 WNW 8 13 30.05 1018 10 16.0934 0 0
7:35 pm 19:35 Clear 37 2.8 31 -0.7 78 78 W 8 13 30.06 1018 10 16.0934 0 0
7:55 pm 19:55 Clear 37 3 31 -0.7 77 77 W 8 13 30.05 1017 10 16.0934 0 0
8:15 pm 20:15 Clear 37 2.8 31 -0.8 77 77 W 7 11 30.05 1018 10 16.0934 0 0
8:35 pm 20:35 Clear 37 2.5 31 -0.8 79 79 W 9 15 30.05 1018 10 16.0934 0 0
8:55 pm 20:55 Clear 37 3 31 -0.6 77 77 W 9 15 30.05 1017 10 16.0934 0 0
9:15 pm 21:15 Clear 37 2.6 30 -0.9 78 78 W 9 15 30.05 1018 10 16.0934 0 0
9:35 pm 21:35 Clear 37 2.8 30 -1 76 76 W 9 15 30.05 1018 10 16.0934 0 0
9:55 pm 21:55 Clear 36 2.2 30 -1 80 80 W 8 13 30.06 1018 10 16.0934 0 0
10:15 pm 22:15 Clear 36 2 29 -1.4 78 78 W 6 9 30.07 1018 10 16.0934 0 0
10:35 pm 22:35 Clear 36 2 30 -1.3 79 79 W 8 13 30.07 1018 10 16.0934 0 0
10:55 pm 22:55 Clear 36 2 30 -1.3 79 79 WNW 8 13 30.07 1018 10 16.0934 0 0
11:15 pm 23:15 Clear 35 1.9 30 -1.1 81 81 W 8 13 30.08 1019 10 16.0934 0 0
11:35 pm 23:35 Clear 35 1.5 29 -1.5 81 81 W 7 11 30.08 1019 10 16.0934 0 0
11:55 pm 23:55 Clear 34 1.3 29 -1.4 82 82 W 8 13 30.08 1019 10 16.0934 0 0

Powered by AerisWeather